This demonstration page uses our WeatherBlox Daily Observations layout. Learn more.

Left ArrowRight Arrow

Hourly Observations for March 11, 2022

Temp ( °F °C ) Dew Point ( °F °C ) Humidity (%) Winds ( mph kmh ) Pressure ( in mb ) Visibility ( mi km ) Precip ( " mm )
12:53 am 00:53 Cloudy 8 -13.3 -4 -20 57 57 NW 8 13 30.38 1029 10 16 0.00 0.00
1:53 am 01:53 Cloudy 8 -13.3 -2 -18.9 63 63 WNW 6 9 30.39 1029 10 16 0.00 0.00
2:53 am 02:53 Mostly Cloudy 5 -15 -2 -18.9 72 72 SW 3 6 30.39 1029 10 16 0.00 0.00
3:53 am 03:53 Mostly Cloudy 2 -16.7 -4 -20 76 76 S 3 6 30.41 1030 10 16 0.00 0.00
4:53 am 04:53 Clear -1 -18.3 -6 -21.1 79 79 SE 3 6 30.42 1030 10 16 0.00 0.00
5:53 am 05:53 Clear 1 -17.2 -5 -20.6 75 75 E 7 11 30.41 1030 10 16 0.00 0.00
6:53 am 06:53 Sunny 2 -16.7 -5 -20.6 72 72 ENE 5 7 30.42 1030 10 16 0.00 0.00
7:53 am 07:53 Sunny 6 -14.4 -3 -19.4 66 66 ENE 8 13 30.40 1030 10 16 0.00 0.00
8:53 am 08:53 Sunny 10 -12.2 -3 -19.4 55 55 E 10 17 30.40 1030 10 16 0.00 0.00
9:53 am 09:53 Sunny 13 -10.6 -4 -20 46 46 ESE 6 9 30.38 1029 10 16 0.00 0.00
10:53 am 10:53 Sunny 16 -8.9 -3 -19.4 43 43 S 5 7 30.36 1028 10 16 0.00 0.00
11:53 am 11:53 Sunny 19 -7.2 -2 -18.9 39 39 Calm 30.31 1027 10 16 0.00 0.00
12:53 pm 12:53 Sunny 22 -5.6 0 -17.8 38 38 VRB 3 6 30.27 1025 10 16 0.00 0.00
1:53 pm 13:53 Mostly Sunny 25 -3.9 2 -16.7 37 37 Calm 30.22 1023 10 16 0.00 0.00
2:53 pm 14:53 Mostly Cloudy 28 -2.2 5 -15 37 37 Calm 30.17 1022 10 16 0.00 0.00
3:53 pm 15:53 Cloudy 28 -2.2 9 -12.8 44 44 W 5 7 30.15 1021 10 16 0.00 0.00
4:53 pm 16:53 Mostly Cloudy 28 -2.2 11 -11.7 49 49 SSW 3 6 30.11 1020 10 16 0.00 0.00
5:53 pm 17:53 Cloudy 28 -2.2 12 -11.1 51 51 Calm 30.09 1019 10 16 0.00 0.00
6:53 pm 18:53 Clear 27 -2.8 14 -10 58 58 ENE 5 7 30.05 1018 10 16 0.00 0.00
7:53 pm 19:53 Clear 25 -3.9 14 -10 63 63 ENE 3 6 30.02 1017 10 16 0.00 0.00
8:53 pm 20:53 Clear 24 -4.4 14 -10 65 65 E 3 6 29.99 1016 10 16 0.00 0.00
9:53 pm 21:53 Cloudy 24 -4.4 17 -8.3 75 75 Calm 29.96 1015 10 16 0.00 0.00
10:53 pm 22:53 Cloudy 36 2.2 25 -3.9 64 64 SW 21 33 29.91 1013 10 16 0.00 0.00
11:53 pm 23:53 Clear 34 1.1 26 -3.3 73 73 SW 17 28 29.88 1012 10 16 0.00 0.00

Powered by AerisWeather